When you browse on this site, cookies collect data to enhance your experience and personalize the content and advertising you see.
Visit our Privacy Policy to learn more. By continuing to use the site, you agree to this use of cookies and data.
  • In Czech Republic
  • List of Countries
  • For 7 days
  • Water Temperature
  • Satellite Maps
  • Weather Map
  • Weather Widgets
  • user-avatar
    Login

    Hourly Weather Andujar

    Today, 19 February, Tuesday

    Time Temperature Precipitation Wind Pressure Humidity
    00:00 +11°C° 0 mm 1 mps 744 mmHg 64%
    01:00 +9°C° 0 mm 0 mps 745 mmHg 65%
    02:00 +9°C° 0 mm 0 mps 745 mmHg 67%
    03:00 +9°C° 0 mm 0 mps 745 mmHg 68%
    04:00 +8°C° 0 mm 0 mps 745 mmHg 70%
    05:00 +8°C° 0 mm 0 mps 745 mmHg 71%
    06:00 +8°C° 0 mm 0 mps 745 mmHg 73%
    07:00 +9°C° 0 mm 0 mps 745 mmHg 68%
    08:00 +10°C° 0 mm 0 mps 745 mmHg 64%
    09:00 +12°C° 0 mm 0 mps 746 mmHg 59%
    10:00 +14°C° 0 mm 0 mps 745 mmHg 55%
    11:00 +15°C° 0 mm 0 mps 745 mmHg 50%
    12:00 +19°C° 0 mm 1 mps 745 mmHg 46%
    13:00 +19°C° 0 mm 1 mps 745 mmHg 44%
    14:00 +20°C° 0 mm 1 mps 744 mmHg 42%
    15:00 +20°C° 0 mm 1 mps 744 mmHg 40%
    16:00 +19°C° 0 mm 1 mps 744 mmHg 46%
    17:00 +16°C° 0 mm 1 mps 744 mmHg 52%
    18:00 +14°C° 0 mm 1 mps 744 mmHg 58%
    19:00 +14°C° 0 mm 1 mps 745 mmHg 61%
    20:00 +13°C° 0 mm 1 mps 745 mmHg 64%
    21:00 +12°C° 0 mm 1 mps 746 mmHg 67%
    22:00 +12°C° 0 mm 1 mps 746 mmHg 69%
    23:00 +10°C° 0 mm 0 mps 746 mmHg 71%

    Tomorrow, 20 February, Wednesday

    Time Temperature Precipitation Wind Pressure Humidity
    00:00 +10°C° 0 mm 0 mps 746 mmHg 73%
    01:00 +10°C° 0 mm 0 mps 746 mmHg 74%
    02:00 +9°C° 0 mm 0 mps 746 mmHg 75%
    03:00 +9°C° 0 mm 0 mps 746 mmHg 76%
    04:00 +9°C° 0 mm 0 mps 746 mmHg 77%
    05:00 +8°C° 0 mm 0 mps 746 mmHg 78%
    06:00 +8°C° 0 mm 0 mps 746 mmHg 79%
    07:00 +10°C° 0 mm 0 mps 747 mmHg 73%
    08:00 +11°C° 0 mm 0 mps 747 mmHg 67%
    09:00 +13°C° 0 mm 0 mps 748 mmHg 61%
    10:00 +14°C° 0 mm 0 mps 748 mmHg 55%
    11:00 +18°C° 0 mm 1 mps 748 mmHg 50%
    12:00 +19°C° 0 mm 1 mps 748 mmHg 45%
    13:00 +20°C° 0 mm 1 mps 747 mmHg 42%
    14:00 +20°C° 0 mm 1 mps 747 mmHg 40%
    15:00 +20°C° 0 mm 1 mps 747 mmHg 38%
    16:00 +19°C° 0 mm 1 mps 747 mmHg 44%
    17:00 +16°C° 0 mm 1 mps 747 mmHg 49%
    18:00 +13°C° 0 mm 0 mps 747 mmHg 54%
    19:00 +13°C° 0 mm 0 mps 748 mmHg 56%
    20:00 +12°C° 0 mm 0 mps 748 mmHg 59%
    21:00 +11°C° 0 mm 0 mps 749 mmHg 61%
    22:00 +11°C° 0 mm 0 mps 749 mmHg 63%
    23:00 +11°C° 0 mm 0 mps 749 mmHg 64%

    Day after tomorrow, 21 February, Thursday

    Time Temperature Precipitation Wind Pressure Humidity
    00:00 +10°C° 0 mm 0 mps 749 mmHg 66%
    01:00 +10°C° 0 mm 0 mps 749 mmHg 67%
    02:00 +10°C° 0 mm 1 mps 749 mmHg 68%
    03:00 +10°C° 0 mm 1 mps 749 mmHg 69%
    04:00 +10°C° 0 mm 1 mps 749 mmHg 69%
    05:00 +10°C° 0 mm 1 mps 750 mmHg 70%
    06:00 +9°C° 0 mm 1 mps 750 mmHg 70%
    07:00 +11°C° 0 mm 1 mps 750 mmHg 65%
    08:00 +12°C° 0 mm 1 mps 751 mmHg 60%
    09:00 +14°C° 0 mm 1 mps 751 mmHg 55%
    10:00 +15°C° 0 mm 1 mps 751 mmHg 49%
    11:00 +18°C° 0 mm 1 mps 751 mmHg 44%
    12:00 +19°C° 0 mm 2 mps 751 mmHg 39%
    13:00 +20°C° 0 mm 1 mps 751 mmHg 37%
    14:00 +21°C° 0 mm 1 mps 751 mmHg 35%
    15:00 +22°C° 0 mm 1 mps 751 mmHg 33%
    16:00 +20°C° 0 mm 1 mps 751 mmHg 38%
    17:00 +18°C° 0 mm 1 mps 751 mmHg 43%
    18:00 +14°C° 0 mm 0 mps 751 mmHg 48%
    19:00 +14°C° 0 mm 1 mps 752 mmHg 49%
    20:00 +13°C° 0 mm 1 mps 752 mmHg 51%
    21:00 +13°C° 0 mm 1 mps 753 mmHg 52%
    22:00 +12°C° 0 mm 1 mps 753 mmHg 54%
    23:00 +12°C° 0 mm 1 mps 753 mmHg 55%

    22 February, Friday

    Time Temperature Precipitation Wind Pressure Humidity
    00:00 +11°C° 0 mm 1 mps 754 mmHg 56%
    01:00 +11°C° 0 mm 1 mps 753 mmHg 56%
    02:00 +10°C° 0 mm 1 mps 753 mmHg 57%
    03:00 +10°C° 0 mm 1 mps 753 mmHg 58%
    04:00 +10°C° 0 mm 1 mps 753 mmHg 59%
    05:00 +9°C° 0 mm 1 mps 753 mmHg 60%
    06:00 +9°C° 0 mm 1 mps 753 mmHg 61%
    07:00 +11°C° 0 mm 1 mps 753 mmHg 58%
    08:00 +12°C° 0 mm 1 mps 753 mmHg 55%
    09:00 +14°C° 0 mm 1 mps 754 mmHg 52%
    10:00 +16°C° 0 mm 1 mps 753 mmHg 45%
    11:00 +19°C° 0 mm 1 mps 753 mmHg 38%
    12:00 +21°C° 0 mm 1 mps 753 mmHg 31%
    13:00 +21°C° 0 mm 1 mps 752 mmHg 29%
    14:00 +22°C° 0 mm 1 mps 752 mmHg 27%
    15:00 +21°C° 0 mm 0 mps 751 mmHg 26%
    16:00 +19°C° 0 mm 0 mps 751 mmHg 31%
    17:00 +16°C° 0 mm 0 mps 751 mmHg 36%
    18:00 +14°C° 0 mm 0 mps 751 mmHg 41%
    19:00 +15°C° 0 mm 1 mps 752 mmHg 43%
    20:00 +14°C° 0 mm 1 mps 752 mmHg 44%
    21:00 +13°C° 0 mm 1 mps 752 mmHg 45%
    22:00 +12°C° 0 mm 1 mps 752 mmHg 46%
    23:00 +12°C° 0 mm 1 mps 752 mmHg 47%

    23 February, Saturday

    Time Temperature Precipitation Wind Pressure Humidity
    00:00 +12°C° 0 mm 1 mps 752 mmHg 47%
    01:00 +11°C° 0 mm 1 mps 752 mmHg 46%
    02:00 +11°C° 0 mm 1 mps 752 mmHg 46%
    03:00 +11°C° 0 mm 1 mps 752 mmHg 45%
    04:00 +10°C° 0 mm 1 mps 752 mmHg 45%
    05:00 +10°C° 0 mm 1 mps 752 mmHg 45%
    06:00 +10°C° 0 mm 1 mps 752 mmHg 44%
    07:00 +11°C° 0 mm 1 mps 752 mmHg 42%
    08:00 +13°C° 0 mm 1 mps 753 mmHg 40%
    09:00 +14°C° 0 mm 0 mps 753 mmHg 38%
    10:00 +18°C° 0 mm 1 mps 753 mmHg 34%
    11:00 +20°C° 0 mm 1 mps 753 mmHg 29%
    12:00 +22°C° 0 mm 1 mps 753 mmHg 25%
    13:00 +23°C° 0 mm 1 mps 753 mmHg 24%
    14:00 +24°C° 0 mm 1 mps 752 mmHg 23%
    15:00 +22°C° 0 mm 0 mps 752 mmHg 22%
    16:00 +20°C° 0 mm 0 mps 752 mmHg 27%
    17:00 +18°C° 0 mm 0 mps 752 mmHg 32%
    18:00 +16°C° 0 mm 0 mps 752 mmHg 37%
    19:00 +16°C° 0 mm 1 mps 752 mmHg 38%
    20:00 +15°C° 0 mm 1 mps 753 mmHg 40%
    21:00 +14°C° 0 mm 1 mps 753 mmHg 42%
    22:00 +13°C° 0 mm 1 mps 753 mmHg 42%
    23:00 +13°C° 0 mm 1 mps 753 mmHg 43%

    24 February, Sunday

    Time Temperature Precipitation Wind Pressure Humidity
    00:00 +13°C° 0 mm 1 mps 753 mmHg 44%
    01:00 +12°C° 0 mm 1 mps 753 mmHg 43%
    02:00 +12°C° 0 mm 1 mps 753 mmHg 43%
    03:00 +12°C° 0 mm 1 mps 753 mmHg 43%
    04:00 +11°C° 0 mm 1 mps 753 mmHg 42%
    05:00 +11°C° 0 mm 1 mps 753 mmHg 42%
    06:00 +11°C° 0 mm 1 mps 753 mmHg 41%
    07:00 +13°C° 0 mm 1 mps 753 mmHg 40%
    08:00 +14°C° 0 mm 1 mps 753 mmHg 39%
    09:00 +16°C° 0 mm 1 mps 754 mmHg 38%
    10:00 +19°C° 0 mm 1 mps 754 mmHg 33%
    11:00 +21°C° 0 mm 1 mps 754 mmHg 29%
    12:00 +23°C° 0 mm 2 mps 753 mmHg 24%
    13:00 +24°C° 0 mm 2 mps 753 mmHg 23%
    14:00 +25°C° 0 mm 2 mps 752 mmHg 22%
    15:00 +25°C° 0 mm 2 mps 752 mmHg 21%
    16:00 +23°C° 0 mm 1 mps 752 mmHg 26%
    17:00 +21°C° 0 mm 1 mps 752 mmHg 30%
    18:00 +17°C° 0 mm 0 mps 752 mmHg 35%
    19:00 +18°C° 0 mm 1 mps 752 mmHg 36%
    20:00 +16°C° 0 mm 1 mps 753 mmHg 37%
    21:00 +15°C° 0 mm 2 mps 753 mmHg 39%
    22:00 +14°C° 0 mm 1 mps 753 mmHg 39%
    23:00 +14°C° 0 mm 1 mps 753 mmHg 40%
    Show more